Location: Saint-Palais-sur-Mer
(45.6429°N, 1.0859°W)
Time: 21:27:49
(UTC+02:00)

CUBEBUG 2 - Pass Details

Date: 26 April 2024
Orbit: 570 x 669 km, 97.8° (Epoch: 19 May)

Event Time Altitude Azimuth Distance (km) Brightness Sun altitude
Rises 03:04:00 0° 32° (NNE) 2,801 ? -29.1°
Reaches altitude 10° 03:07:06 10° 58° (ENE) 1,909 ? -28.9°
Enters shadow 03:09:10 14° 88° (E) 1,660 ? -28.8°
